Location: Fours
(44.3167°N, 6.7000°E)
Time: 12:55:42
(UTC+00:00)

Meteor 1-25 Rocket - Pass Details

Date: 30 November 2020
Orbit: 837 x 890 km, 81.2° (Epoch: 25 January)

Event Time Altitude Azimuth Distance (km) Brightness Sun altitude
Rises 16:39:15 0° 353° (N) 3,423 7.2 -7.8°
Reaches altitude 10° 16:41:43 10° 357° (N) 2,490 6.5 -8.2°
Maximum altitude 16:47:17 57° 76° (ENE) 1,007 4.3 -9.1°
Drops below altitude 10° 16:52:53 10° 155° (SSE) 2,509 6.6 -10.1°
Sets 16:55:22 0° 159° (SSE) 3,450 7.4 -10.5°
